[[{"header":{"parameterUnit":"m.s-1","parameterCategory":1,"la1":30.2991,"la2":30.254,"lo1":-89.0895,"lo2":-89.0444,"dy":0.0017,"dx":0.0017,"nx":28,"ny":28,"refTime":"2023-11-07T09:00:00:Z","depth":0,"parameterNumber":2,"parameterNumberName":"U-component_of_WINDS"},"data":[0,0,0,0,0,0,0,0,0,0,0,0,0,0,0,0,0,0,0,0,0,0,0,0,0,0,0,0,0,0,0,0,0,0,0,0,0,0,0,0,0,0,0,0,0,0,0,0,0,0,0,0,0,0,0,0,0,0,-0.7884,-0.7884,0,-0.7908,-0.7908,-0.7908,-0.788,-0.7879,-0.7878,-0.7877,-0.7902,-0.7904,-0.7905,0,0,0,0,0,0,0,0,0,0,0,0,0,-0.7815,-0.7816,-0.7884,-0.7884,-0.7885,-0.7908,-0.7908,-0.7909,-0.788,-0.7879,-0.7878,-0.7876,-0.7902,-0.7904,-0.7906,0,0,0,0,0,0,0,0,0,0,0,0,0,-0.7842,-0.7817,-0.7884,-0.7873,-0.7873,-0.7908,-0.7908,-0.7909,-0.7881,-0.7879,-0.7877,-0.7876,-0.7901,-0.7903,-0.7906,-0.7953,0,0,-0.7913,-0.7915,0,0,0,0,0,0,0,0,-0.7841,-0.7845,-0.7875,-0.7874,-0.7873,-0.7889,-0.7893,-0.7924,-0.7881,-0.7878,-0.7877,-0.7875,-0.7899,-0.7902,-0.791,-0.7954,-0.7955,-0.7914,-0.7915,-0.7916,-0.7917,0,0,0,0,0,0,0,-0.7839,-0.7844,-0.7894,-0.7875,-0.7874,-0.7868,-0.787,-0.7899,-0.7897,-0.7878,-0.7876,-0.7879,-0.7899,-0.7907,-0.791,-0.7956,-0.7914,-0.7916,-0.7917,-0.7918,-0.804,-0.8041,0,0,0,0,0,0,-0.7838,-0.7842,-0.7893,-0.7894,-0.7853,-0.787,-0.7873,-0.7886,-0.7897,-0.7897,-0.788,-0.7877,-0.7904,-0.7907,-0.7911,-0.7967,-0.7916,-0.7919,-0.792,-0.8038,-0.804,-0.8042,0,0,0,0,0,0,-0.7837,-0.7843,-0.7892,-0.7868,-0.7874,-0.7873,-0.7888,-0.7887,-0.7896,-0.7899,-0.7898,-0.7889,-0.7903,-0.7907,-0.7943,-0.7967,-0.792,-0.7922,-0.8036,-0.8038,-0.8041,-0.8078,0,0,0,0,0,0,-0.7835,-0.7843,-0.786,-0.7868,-0.7875,-0.7923,-0.789,-0.7889,-0.79,-0.7897,-0.7907,-0.7907,-0.7902,-0.7939,-0.7945,-0.797,-0.7924,-0.8034,-0.8037,-0.804,-0.8075,-0.8082,-0.8088,0,0,0,0,0,-0.7833,-0.787,-0.7862,-0.7868,-0.7897,-0.7925,-0.7928,-0.7921,-0.7902,-0.792,-0.7922,-0.7907,-0.7963,-0.7943,-0.7949,-0.7975,-0.8032,-0.8036,-0.804,-0.8072,-0.808,-0.8088,0,0,0,0,0,0,-0.7866,-0.7871,-0.7861,-0.7903,-0.7913,-0.792,-0.7942,-0.793,-0.7947,-0.7943,-0.7934,-0.7936,-0.7974,-0.7978,-0.7955,-0.8021,-0.7995,-0.8,-0.8017,-0.8025,-0.8031,-0.8029,-0.7926,0,0,0,0,0,-0.7878,-0.7899,-0.7903,-0.7939,-0.7945,-0.7943,-0.7954,-0.7948,-0.7959,-0.7963,-0.7967,-0.7978,-0.7998,-0.8012,-0.8031,-0.8075,-0.8077,-0.8096,-0.8103,-0.8108,-0.8113,-0.8136,-0.8145,-0.8055,-0.8055,-0.8054,0,0,-0.7903,-0.7908,-0.7923,-0.7946,-0.7953,-0.7976,-0.7947,-0.7972,-0.7989,-0.7967,-0.8,-0.8004,-0.8016,-0.8056,-0.8073,-0.806,-0.8138,-0.8113,-0.8117,-0.8119,-0.8141,-0.815,-0.8157,-0.8057,-0.8057,-0.8056,0,0,-0.796,-0.7967,-0.7997,-0.8005,-0.8017,-0.8015,-0.8022,-0.803,-0.8032,-0.8065,-0.8049,-0.8069,-0.8104,-0.8113,-0.8122,-0.8183,-0.817,-0.8189,-0.8223,-0.8246,-0.8253,-0.826,-0.8281,-0.8289,-0.8194,-0.8194,-0.8194,0,-0.799,-0.8023,-0.8015,-0.8041,-0.8052,-0.8033,-0.8064,-0.8072,-0.8089,-0.8097,-0.8082,-0.8125,-0.8132,-0.8174,-0.8188,-0.8197,-0.8205,-0.8188,-0.8253,-0.8259,-0.8265,-0.8285,-0.8293,-0.8196,-0.8196,-0.8196,-0.8196,0,-0.8059,-0.8083,-0.8106,-0.8123,-0.8136,-0.8165,-0.816,-0.8175,-0.8167,-0.8167,-0.8201,-0.8209,-0.8228,-0.8238,-0.8231,-0.8279,-0.827,-0.8254,-0.8227,-0.8276,-0.8295,-0.8302,-0.82,-0.8199,-0.8198,-0.8198,0,0,-0.8138,-0.8149,-0.8158,-0.8165,-0.8176,-0.8194,-0.8222,-0.8241,-0.8254,-0.8266,-0.8289,-0.8319,-0.8305,-0.8315,-0.8309,-0.8329,-0.8377,-0.8311,-0.8311,-0.8323,-0.8429,-0.8441,-0.845,-0.8368,-0.8369,-0.8371,-0.8428,0,-0.8195,-0.8243,-0.8236,-0.8282,-0.8303,-0.8285,-0.831,-0.8319,-0.832,-0.8338,-0.8339,-0.836,-0.834,-0.8346,-0.8365,-0.8367,-0.8398,-0.8363,-0.8389,-0.839,-0.8387,-0.846,-0.8472,-0.8526,-0.8436,-0.8437,-0.8438,0,-0.8268,-0.8283,-0.8331,-0.8339,-0.8347,-0.8369,-0.8386,-0.8404,-0.8414,-0.8413,-0.8425,-0.8415,-0.8443,-0.8416,-0.8454,-0.843,-0.8441,-0.8443,-0.8445,-0.8447,-0.8417,-0.8464,-0.8543,-0.8551,-0.8449,-0.8448,-0.8448,0,-0.832,-0.8352,-0.8385,-0.8392,-0.8402,-0.8417,-0.8422,-0.8431,-0.8443,-0.8458,-0.8465,-0.8483,-0.8493,-0.8507,-0.8503,-0.8483,-0.8542,-0.8514,-0.8542,-0.8542,-0.8555,-0.8554,-0.8637,-0.8562,-0.8562,-0.8562,-0.8562,0,-0.8385,-0.8415,-0.8409,-0.8429,-0.8462,-0.8454,-0.8487,-0.849,-0.8498,-0.8518,-0.8504,-0.8524,-0.8516,-0.8536,-0.8532,-0.8564,-0.8569,-0.8569,-0.8567,-0.857,-0.857,-0.8576,-0.8572,-0.8564,-0.8563,-0.8563,-0.8563,0,-0.8449,-0.8446,-0.848,-0.8487,-0.8489,-0.8513,-0.8518,-0.8537,-0.8537,-0.8563,-0.8569,-0.8568,-0.859,-0.8586,-0.8611,-0.8608,-0.8648,-0.8643,-0.8645,-0.8643,-0.867,-0.8668,-0.876,-0.8772,-0.869,-0.8691,-0.8692,0,-0.849,-0.8512,-0.8521,-0.8534,-0.8539,-0.856,-0.8572,-0.8565,-0.8578,-0.8591,-0.8609,-0.8629,-0.8645,-0.8681,-0.8682,-0.8701,-0.8695,-0.8726,-0.8698,-0.8699,-0.8695,-0.8694,-0.8696,-0.8732,-0.8733,-0.8734,-0.8734,0,-0.8563,-0.856,-0.8578,-0.8595,-0.8609,-0.8622,-0.8634,-0.8645,-0.8639,-0.8655,-0.8676,-0.8689,-0.8713,-0.8734,-0.8751,-0.8756,-0.8744,-0.8743,-0.875,-0.8753,-0.8753,-0.8753,-0.866,-0.8741,-0.874,-0.874,-0.8739,-0.8739,-0.8617,-0.8636,-0.8645,-0.8665,-0.8673,-0.8684,-0.8702,-0.8703,-0.8721,-0.8741,-0.8735,-0.876,-0.877,-0.8792,-0.8799,-0.8818,-0.8807,-0.8817,-0.882,-0.8822,-0.8825,-0.875,-0.8821,-0.8821,-0.8821,-0.8821,-0.8821,0,-0.8689,-0.8694,-0.8712,-0.8729,-0.8744,-0.8731,-0.8744,-0.8758,-0.8779,-0.879,-0.8805,-0.883,-0.885,-0.8853,-0.8872,-0.8887,-0.8882,-0.8892,-0.8891,-0.8892,-0.8835,-0.8827,-0.8896,-0.8896,-0.8896,-0.8896,-0.8896,-0.8896,-0.8728,-0.876,-0.8758,-0.8793,-0.8798,-0.8822,-0.883,-0.884,-0.8848,-0.8877,-0.8893,-0.8895,-0.8902,-0.8921,-0.8938,-0.8939,-0.8946,-0.8958,-0.8957,-0.8903,-0.8896,-0.8889,-0.8881,-0.896,-0.896,-0.9012,-0.9013,-0.9013]},{"header":{"parameterUnit":"m.s-1","parameterCategory":1,"la1":30.2991,"la2":30.254,"lo1":-89.0895,"lo2":-89.0444,"dy":0.0017,"dx":0.0017,"nx":28,"ny":28,"refTime":"2023-11-07T09:00:00:Z","depth":0,"parameterNumber":3,"parameterNumberName":"V-component_of_WINDS"},"data":[0,0,0,0,0,0,0,0,0,0,0,0,0,0,0,0,0,0,0,0,0,0,0,0,0,0,0,0,0,0,0,0,0,0,0,0,0,0,0,0,0,0,0,0,0,0,0,0,0,0,0,0,0,0,0,0,0,0,0.0473,0.0473,0,0.0481,0.0481,0.0481,0.0473,0.0472,0.0472,0.0472,0.0481,0.0482,0.0482,0,0,0,0,0,0,0,0,0,0,0,0,0,0.0452,0.0452,0.0473,0.0473,0.0473,0.0481,0.0481,0.0481,0.0473,0.0472,0.0472,0.0471,0.0481,0.0482,0.0482,0,0,0,0,0,0,0,0,0,0,0,0,0,0.046,0.0452,0.0473,0.047,0.0469,0.0481,0.0481,0.0481,0.0473,0.0472,0.0472,0.0471,0.0481,0.0482,0.0483,0.0498,0,0,0.0485,0.0485,0,0,0,0,0,0,0,0,0.046,0.0461,0.047,0.047,0.047,0.0475,0.0477,0.0487,0.0473,0.0472,0.0472,0.0471,0.048,0.0481,0.0483,0.0498,0.0498,0.0485,0.0486,0.0486,0.0486,0,0,0,0,0,0,0,0.0459,0.0461,0.0476,0.047,0.047,0.0468,0.0469,0.0479,0.0478,0.0472,0.0471,0.0472,0.048,0.0482,0.0483,0.0499,0.0485,0.0486,0.0486,0.0487,0.0527,0.0527,0,0,0,0,0,0,0.0459,0.046,0.0476,0.0476,0.0463,0.0469,0.047,0.0474,0.0478,0.0478,0.0472,0.0472,0.0481,0.0482,0.0484,0.0502,0.0486,0.0487,0.0487,0.0526,0.0527,0.0527,0,0,0,0,0,0,0.0458,0.046,0.0475,0.0468,0.047,0.047,0.0475,0.0474,0.0477,0.0479,0.0479,0.0475,0.0481,0.0483,0.0494,0.0502,0.0487,0.0488,0.0526,0.0526,0.0527,0.0539,0,0,0,0,0,0,0.0458,0.046,0.0466,0.0468,0.047,0.0485,0.0475,0.0475,0.0479,0.0478,0.0482,0.0482,0.0481,0.0493,0.0495,0.0503,0.0489,0.0525,0.0526,0.0527,0.0538,0.054,0.0542,0,0,0,0,0,0.0457,0.0469,0.0466,0.0468,0.0477,0.0486,0.0487,0.0485,0.0479,0.0485,0.0486,0.0482,0.0501,0.0494,0.0497,0.0505,0.0524,0.0526,0.0527,0.0537,0.054,0.0542,0,0,0,0,0,0,0.0467,0.0469,0.0466,0.0479,0.0482,0.0484,0.0491,0.0488,0.0493,0.0492,0.049,0.0491,0.0504,0.0505,0.0498,0.052,0.0512,0.0514,0.0519,0.0521,0.0523,0.0523,0.0489,0,0,0,0,0,0.0471,0.0478,0.0479,0.049,0.0492,0.0491,0.0495,0.0493,0.0497,0.0499,0.05,0.0505,0.0512,0.0517,0.0523,0.0538,0.0539,0.0545,0.0547,0.0549,0.0551,0.0559,0.0562,0.0532,0.0532,0.0532,0,0,0.0479,0.0481,0.0485,0.0492,0.0495,0.0502,0.0493,0.0501,0.0507,0.05,0.0511,0.0513,0.0517,0.0531,0.0537,0.0533,0.0559,0.055,0.0552,0.0553,0.0561,0.0564,0.0566,0.0532,0.0532,0.0532,0,0,0.0497,0.0499,0.0509,0.0511,0.0515,0.0514,0.0517,0.052,0.052,0.0531,0.0527,0.0534,0.0546,0.0549,0.0553,0.0572,0.0569,0.0575,0.0586,0.0594,0.0597,0.0599,0.0607,0.061,0.0576,0.0576,0.0576,0,0.0507,0.0517,0.0514,0.0523,0.0526,0.052,0.053,0.0533,0.0539,0.0542,0.0537,0.0552,0.0555,0.0569,0.0574,0.0577,0.058,0.0575,0.0597,0.0599,0.0601,0.0608,0.0611,0.0577,0.0577,0.0577,0.0577,0,0.0529,0.0537,0.0544,0.055,0.0554,0.0563,0.0562,0.0567,0.0565,0.0565,0.0577,0.058,0.0587,0.059,0.0588,0.0605,0.0602,0.0597,0.0588,0.0604,0.0611,0.0614,0.0578,0.0578,0.0578,0.0577,0,0,0.0555,0.0558,0.0561,0.0564,0.0567,0.0573,0.0583,0.0589,0.0594,0.0598,0.0606,0.0617,0.0612,0.0616,0.0614,0.0622,0.0638,0.0616,0.0616,0.0621,0.0658,0.0662,0.0665,0.0635,0.0636,0.0636,0.0657,0,0.0574,0.059,0.0587,0.0603,0.061,0.0604,0.0612,0.0616,0.0616,0.0623,0.0623,0.0631,0.0624,0.0626,0.0633,0.0635,0.0646,0.0633,0.0644,0.0645,0.0644,0.0669,0.0674,0.0693,0.066,0.0661,0.0661,0,0.0598,0.0603,0.0619,0.0622,0.0625,0.0632,0.0639,0.0645,0.0649,0.0649,0.0653,0.065,0.066,0.0651,0.0665,0.0656,0.0661,0.0662,0.0663,0.0664,0.0654,0.0672,0.07,0.0703,0.0665,0.0665,0.0664,0,0.0617,0.0627,0.0638,0.0641,0.0644,0.0649,0.0651,0.0654,0.0659,0.0664,0.0667,0.0674,0.0678,0.0683,0.0682,0.0675,0.0697,0.0688,0.0698,0.0698,0.0704,0.0704,0.0733,0.0705,0.0705,0.0705,0.0705,0,0.0639,0.0649,0.0646,0.0654,0.0665,0.0662,0.0674,0.0675,0.0678,0.0686,0.0681,0.0688,0.0686,0.0693,0.0693,0.0705,0.0707,0.0707,0.0707,0.0708,0.0709,0.0712,0.0711,0.0706,0.0705,0.0705,0.0705,0,0.0662,0.066,0.0672,0.0674,0.0675,0.0683,0.0685,0.0692,0.0692,0.0702,0.0704,0.0704,0.0712,0.0712,0.0721,0.0721,0.0737,0.0734,0.0735,0.0735,0.0746,0.0745,0.078,0.0784,0.0752,0.0753,0.0753,0,0.0676,0.0684,0.0687,0.0691,0.0693,0.07,0.0705,0.0702,0.0707,0.0712,0.0718,0.0726,0.0733,0.0747,0.0748,0.0756,0.0754,0.0766,0.0755,0.0756,0.0755,0.0755,0.0757,0.0768,0.0768,0.0769,0.0769,0,0.0703,0.0702,0.0708,0.0714,0.0719,0.0724,0.0728,0.0732,0.073,0.0735,0.0744,0.0749,0.0758,0.0767,0.0774,0.0776,0.0773,0.0772,0.0775,0.0777,0.0777,0.0778,0.0742,0.0771,0.0771,0.0771,0.0771,0.0771,0.0723,0.073,0.0733,0.074,0.0742,0.0746,0.0753,0.0754,0.0761,0.0768,0.0766,0.0776,0.078,0.0789,0.0792,0.08,0.0796,0.08,0.0801,0.0803,0.0804,0.0775,0.0801,0.0801,0.0801,0.0801,0.0801,0,0.075,0.0751,0.0758,0.0764,0.077,0.0765,0.0769,0.0774,0.0783,0.0787,0.0793,0.0803,0.0811,0.0813,0.0821,0.0827,0.0825,0.0829,0.0829,0.083,0.0807,0.0804,0.083,0.083,0.083,0.083,0.083,0.083,0.0765,0.0776,0.0776,0.0789,0.079,0.0799,0.0802,0.0806,0.081,0.0821,0.0827,0.0828,0.0831,0.0839,0.0847,0.0847,0.0851,0.0855,0.0855,0.0834,0.0831,0.0829,0.0826,0.0856,0.0856,0.0877,0.0878,0.0878]}]]